Location: C.E.K. Mees Observatory
(42.7003°N, 77.4088°W)
Time: 22:59:06
(UTC-04:00)

Envisat - Pass Details

Date: 12 October 2017
Orbit: 764 x 766 km, 98.2° (Epoch: 15 August)

Event Time Altitude Azimuth Distance (km) Brightness Sun altitude
Exits shadow 21:34:51 39° 293° (WNW) 1,148 4.2 -33.9°
Drops below altitude 10° 21:38:40 10° 334° (NNW) 2,311 6.0 -34.5°
Sets 21:41:05 0° 341° (NNW) 3,242 6.8 -34.9°
